Weather History for Nome, AK

Change the Weather History Date:

Wednesday, October 17, 2012

  Actual Average Record
Temperature  
Mean Temperature 25 °F 28 °F  
Max Temperature 31 °F 34 °F 55 °F (1969)
Min Temperature 19 °F 22 °F 6 °F (1974)
Degree Days  
Heating Degree Days 40 37  
Month to date heating degree days 521 563  
Since 1 July heating degree days 2175 2093  
Cooling Degree Days 0    
Month to date cooling degree days 0  
Year to date cooling degree days 0  
Moisture  
Dew Point 17 °F    
Average Humidity 0    
Maximum Humidity 0    
Minimum Humidity 0    
Precipitation  
Precipitation T in 0.05 in 0.62 in (2005)
Month to date precipitation 1.11 0.98  
Year to date precipitation 17.86 13.88  
Snow  
Snow T in 0.20 in 3.00 in (1920)
Month to date snowfall 0.2 1.7  
Since 1 July snowfall 0.5 2.3  
Since 1 September snowfall 0.5 2.3  
Snow Depth T in    
Sea Level Pressure  
Sea Level Pressure 30.17 in    
Wind  
Wind Speed 10 mph (NW)    
Max Wind Speed 26 mph    
Max Gust Speed 35 mph    
Visibility 10 miles    
Events Snow    
T = Trace of Precipitation, MM = Missing Value Source: NWS Daily Summary

Daily Weather History Graph

Daily Weather History Graph

Search for Another Location

Airport:

Trip Planner

Search our weather history database for the weather conditions in past years. The results will help you decide how hot, cold, wet, or windy it might be!

Date:

Astronomy

Oct. 17, 2012 Rise Set
Actual Time 10:01 AM AKDT 7:30 PM AKDT
Civil Twilight 9:11 AM AKDT 8:20 PM AKDT
Nautical Twilight 8:15 AM AKDT 9:16 PM AKDT
Astronomical Twilight 7:18 AM AKDT 10:13 PM AKDT
Moon 2:15 PM AKDT (10/17) 7:51 PM AKDT (10/17)
Length of Visible Light 11h 09m
Length of Day
9h 29m
Waxing Crescent, 8% of the Moon is Illuminated
Oct 17
Waxing Crescent
Oct 21
First Quarter
Oct 29
Full
Nov 6
Last Quarter
Nov 13
New

Hourly Weather History & Observations

Time (AKDT) Temp. Windchill Dew Point Humidity Pressure Visibility Wind Dir Wind Speed Gust Speed Precip Events Conditions
12:53 AM 21.9 °F 11.0 °F 16.0 °F 78% 30.06 in 10.0 mi West 10.4 mph - N/A   Scattered Clouds
1:53 AM 21.9 °F 12.5 °F - N/A% 30.06 in 10.0 mi NNW 8.1 mph - N/A   Clear
2:53 AM 23.0 °F 15.8 °F 15.8 °F 74% 30.08 in 10.0 mi NNW 5.8 mph - N/A   Clear
3:53 AM 23.0 °F 13.1 °F 15.8 °F 74% 30.11 in 10.0 mi NW 9.2 mph - N/A   Clear
4:53 AM 19.0 °F 8.2 °F - N/A% 30.10 in 10.0 mi WNW 9.2 mph - N/A   Clear
5:53 AM 19.9 °F 10.1 °F 14.0 °F 78% 30.13 in 10.0 mi WNW 8.1 mph - N/A   Clear
6:53 AM 19.9 °F 10.1 °F 14.0 °F 78% 30.13 in 10.0 mi WNW 8.1 mph - N/A   Clear
7:53 AM 22.1 °F 14.7 °F 14.0 °F 71% 30.14 in 10.0 mi NNW 5.8 mph - N/A   Partly Cloudy
8:53 AM 19.9 °F 11.1 °F 14.0 °F 78% 30.15 in 10.0 mi WNW 6.9 mph - N/A   Partly Cloudy
9:53 AM 21.0 °F 16.2 °F 16.0 °F 81% 30.17 in 10.0 mi North 3.5 mph - N/A   Partly Cloudy
10:53 AM 21.9 °F 15.7 °F 17.1 °F 82% 30.18 in 10.0 mi NNW 4.6 mph - N/A   Scattered Clouds
11:53 AM 26.1 °F 19.4 °F 18.0 °F 71% 30.19 in 10.0 mi ESE 5.8 mph - N/A   Scattered Clouds
12:53 PM 28.9 °F 19.2 °F 18.0 °F 64% 30.19 in 10.0 mi NW 11.5 mph - N/A   Mostly Cloudy
1:53 PM 28.9 °F 19.2 °F 17.1 °F 61% 30.20 in 10.0 mi WNW 11.5 mph - N/A   Partly Cloudy
2:53 PM 30.0 °F 19.1 °F 17.1 °F 59% 30.20 in 10.0 mi NW 15.0 mph - N/A   Mostly Cloudy
3:53 PM 30.0 °F 19.1 °F 18.0 °F 61% 30.20 in 10.0 mi NW 15.0 mph - N/A   Scattered Clouds
4:53 PM 30.0 °F 22.4 °F 18.0 °F 61% 30.20 in 10.0 mi NNW 8.1 mph - N/A   Scattered Clouds
5:53 PM 28.0 °F 20.0 °F 18.0 °F 66% 30.22 in 9.0 mi NW 8.1 mph - 0.00 in Snow Light Snow
6:53 PM 28.0 °F 18.6 °F 19.0 °F 69% 30.21 in 9.0 mi North 10.4 mph - 0.00 in Snow Light Snow
7:53 PM 27.0 °F 14.7 °F 18.0 °F 69% 30.21 in 8.0 mi NW 16.1 mph - 0.00 in Snow Light Snow
8:53 PM 25.0 °F 13.6 °F 18.0 °F 75% 30.24 in 9.0 mi NW 12.7 mph - 0.00 in   Mostly Cloudy
9:53 PM 25.0 °F 14.8 °F 18.0 °F 75% 30.24 in 10.0 mi WNW 10.4 mph - N/A   Scattered Clouds
10:53 PM 24.1 °F 14.4 °F 19.0 °F 81% 30.24 in 10.0 mi WNW 9.2 mph - N/A   Scattered Clouds
11:53 PM 26.1 °F 16.8 °F 17.1 °F 69% 30.25 in 10.0 mi WNW 9.2 mph - N/A   Scattered Clouds